Regional Weather Roundup
Issued by NWS

Home | Current Version | Previous Version | Graphics & Text | Print | Product List | Glossary On
Versions: 1 2 3 4 5 6 7 8 9 10 11 12 13 14 15 16 17 18 19 20 21 22 23 24 25 26 27 28 29 30 31 32 33 34 35 36 37 38 39 40 41 42 43 44 45 46 47 48 49
000
ASUS45 KCYS 150710
RWRWY

WYOMING REGIONAL WEATHER ROUNDUP
NATIONAL WEATHER SERVICE CHEYENNE WY
100 AM MDT MON SEP 15 2014

NOTE:  "FAIR" INDICATES FEW OR NO CLOUDS BELOW 12,000 FEET
WITH NO SIGNIFICANT WEATHER AND/OR OBSTRUCTIONS TO VISIBILITY.

WYZ001-150800-
YELLOWSTONE NATIONAL PARK

CITY           SKY/WX    TMP DP  RH WIND       PRES   REMARKS
LK YELLOWSTONE   N/A     33  26  75 CALM      30.32R
W YELLOWSTONE  NOT AVBL

$$
WYZ002>013-054>058-071-098>099-150800-
NORTHERN WYOMING

CITY           SKY/WX    TMP DP  RH WIND       PRES   REMARKS
JACKSON        CLEAR     43  27  52 CALM      30.23R
CODY           CLEAR     46  37  71 S3        30.25R
GREYBULL       CLEAR     51  38  60 VRB3      30.20R
WORLAND        CLEAR     44  38  79 CALM      30.21R
SHERIDAN       CLEAR     43  37  79 S5        30.24R
BUFFALO        CLEAR     46  36  68 NW5       30.27R
GILLETTE       CLEAR     38  36  92 S6        30.25R WCI  33
HULETT         FAIR      39  36  87 MISG      30.24
NEWCASTLE      FAIR      37  37 100 CALM      30.26

$$
WYZ014>020-022>026-101>103-150800-
CENTRAL WYOMING

CITY           SKY/WX    TMP DP  RH WIND       PRES   REMARKS
BIG PINEY      CLEAR     37  25  61 NE9       30.28R WCI  30
PINEDALE       SUNNY     36  27  69 NW6       30.29R WCI  31
DUBOIS         FAIR      41  27  56 CALM      30.31R
LANDER         CLEAR     50  34  54 W13       30.24S
RIVERTON       CLEAR     50  35  56 E7        30.26R
CASPER         CLEAR     43  38  82 VRB3      30.26R
DOUGLAS        CLEAR     40  38  93 CALM      30.26R

$$
WYZ021-027>030-104>119-150800-
SOUTHERN WYOMING

CITY           SKY/WX    TMP DP  RH WIND       PRES   REMARKS
EVANSTON       CLEAR     55  33  43 SE8       30.26R
KEMMERER       MOSUNNY   48  30  49 N12       30.28R
FORT BRIDGER   FAIR      57  32  39 S8        30.29R
ROCK SPRINGS   PTCLDY    58  24  27 E10       30.25
DIXON          FAIR      47  37  67 E3        30.27R
RAWLINS        CLEAR     44  34  67 N9        30.26R
SARATOGA       FAIR      45  34  65 NW3       30.26R
LARAMIE        CLEAR     46  41  82 NW8       30.27R
CHEYENNE       CLEAR     46  42  86 NW7       30.25R
TORRINGTON     CLEAR     42  39  89 NW7       30.23R
PINE BLUFFS    FAIR      45  43  93 N8        30.22R

$$



USA.gov is the U.S. government's official web portal to all federal, state and local government web resources and services.